Regional Weather Roundup
Issued by NWS

Home | Current Version | Previous Version | Text Only | Print | Product List | Glossary Off
Versions: 1 2 3 4 5 6 7 8 9 10 11 12 13 14 15 16 17 18 19 20 21 22 23 24 25 26 27 28 29 30 31 32 33 34 35 36 37 38 39 40 41 42 43 44 45 46 47 48 49 50

000
ASUS45 KABQ 231001
RWRNM
NEW MEXICO REGIONAL WEATHER ROUNDUP
NATIONAL WEATHER SERVICE ALBUQUERQUE NM
400 AM MDT MON APR 23 2018

NOTE: "FAIR" MEANS FEW OR NO CLOUDS BELOW 12,000 FEET AGL WITH NO
       SIGNIFICANT WEATHER OR OBSTRUCTIONS TO VISION.

      THIS PRODUCT IS RELEASED AS TWO VERSIONS.  ONE VERSION NEAR
      THE TOP OF THE HOUR CONTAINING PRELIMINARY DATA FROM ALBUQUERQUE
      AND OTHER STATIONS.  A FINAL VERSION WITH ADDITIONAL DATA IS
      ISSUED ABOUT 10 MINUTES AFTER THE HOUR.

NMZ501-503-504-510>518-231100-
NORTHWEST PLATEAU/NORTHCENTRAL MOUNTAINS

CITY           SKY/WX    TMP DP  RH WIND       PRES   REMARKS
FARMINGTON     FAIR      45  21  38 E3        30.08R
LOS ALAMOS     FAIR      47  31  51 S12       30.22R
SANTA FE       FAIR      45  34  65 SE8       30.18R
TAOS           FAIR      40  23  50 NW3       30.23R
ANGEL FIRE     FAIR      30  26  85 CALM      30.26S

$$
NMZ402-403-502-505>509-231100-
WESTCENTRAL MOUNTAINS/SOUTHWEST MOUNTAINS

CITY           SKY/WX    TMP DP  RH WIND       PRES   REMARKS
GALLUP         FAIR      32  11  41 NE6       30.17R WCI  26
GRANTS         FAIR      36  13  39 NW3       30.18S
SILVER CITY    FAIR      47  27  46 N9        30.13R

$$
NMZ407-409-411-412-231100-
SOUTHERN DESERTS

CITY           SKY/WX    TMP DP  RH WIND       PRES   REMARKS
DEMING         FAIR      49  29  46 CALM      30.08S
LAS CRUCES     FAIR      53  30  41 CALM      30.09R
ALAMOGORDO     FAIR      52  25  35 NW8       30.09S
T OR C         FAIR      53  24  32 W10       30.10R

$$
NMZ519>523-231100-
CENTRAL VALLEYS/CENTRAL HIGHLANDS

CITY           SKY/WX    TMP DP  RH WIND       PRES   REMARKS
ALBUQUERQUE    FAIR      55  31  39 E9        30.12S
MORIARTY ARPT  FAIR      43  34  70 NW6       30.21R
CLINES CORNERS FAIR      37  35  92 E9        30.23S WCI  30
BELEN          FAIR      48  22  36 S8        30.11R
SOCORRO        FAIR      51  24  34 S8        30.10R

$$
NMZ524>526-539-540-231100-
SOUTHCENTRAL MOUNTAINS

CITY           SKY/WX    TMP DP  RH WIND       PRES   REMARKS
RUIDOSO        NOT AVBL

$$
NMZ527>531-231100-
NORTHEAST HIGHLANDS/NORTHEAST PLAINS

CITY           SKY/WX    TMP DP  RH WIND       PRES   REMARKS
LAS VEGAS      FAIR      36  34  92 S7        30.22S WCI  30
RATON          FAIR      36  34  92 CALM      30.19F
CLAYTON        FAIR      39  37  92 SW7       30.17F WCI  34

$$
NMZ532>537-231100-
EASTCENTRAL PLAINS

CITY           SKY/WX    TMP DP  RH WIND       PRES   REMARKS
SANTA ROSA     FAIR      41  36  83 NE3       30.18S
TUCUMCARI      FAIR      45  40  82 CALM      30.16S
CANNON AFB     NOT AVBL
CLOVIS AIRPORT FAIR      39  35  86 N6        30.19S WCI  35

$$
NMZ028-029-538-231100-
SOUTHEAST PLAINS

CITY           SKY/WX    TMP DP  RH WIND       PRES   REMARKS
ROSWELL        FAIR      49  35  58 CALM      30.11S
ARTESIA        FAIR      50  32  50 CALM      30.12R
CARLSBAD       FAIR      46  32  58 S9        30.09S
HOBBS          FAIR      46  34  61 E6        30.14S


$$



USA.gov is the U.S. government's official web portal to all federal, state and local government web resources and services.